Date String (YYYY-MM-DD hh:mm:ss) UTC,Instrument flags,absolute air pressure of the measurement (hPa),sample flow rate (lpm),inlet stack bypass flow (lpm),air temperature of the measurement (°C),ambient temperature measured by the external sensor (°C),aerosol sample conditioner tube jacket temperature (°C),OPC LED temperature (°C),internal box temperature (°C),relative humidity of the measurement (%),span deviation,mass concentration of particles derived from Lorenz-Mie calculation of OPC scattering (μg/m³),mass concentration of particles derived from Lorenz-Mie calculation of OPC scattering (μg/m³),mass concentration of particles derived from Lorenz-Mie calculation of OPC scattering (μg/m³)
DateTimeUTC,F1_M11,P_M11,Q1_M11,Q2_M11,T1_M11,T2_M11,T3_M11,T4_M11,T5_M11,U1_M11,ZSPAN_M11,X0_M11,X2_M11,X1_M11
2023-10-14 13:00:00,SystemResetWarning,0837.0,5.00,000.00,025.4,023.7,000.0,033.9,027.1,14.7,0000.0,0005.01,0002.99,0002.79
2023-10-14 13:01:00,SystemResetWarning,0837.0,5.01,000.00,025.4,023.7,000.0,033.9,027.1,14.7,0000.0,0005.05,0003.00,0002.79
2023-10-14 13:02:00,SystemResetWarning,0837.0,5.00,000.00,025.4,023.7,000.0,033.9,027.0,14.8,0000.0,0005.00,0003.00,0002.80
2023-10-14 13:03:00,SystemResetWarning,0837.0,5.00,000.00,025.3,023.7,000.0,033.8,027.0,14.8,0000.0,0004.84,0003.02,0002.82
2023-10-14 13:04:00,SystemResetWarning,0837.0,5.00,000.00,025.3,023.7,000.0,033.8,027.0,14.9,0000.0,0004.99,0003.09,0002.84
2023-10-14 13:05:00,SystemResetWarning,0837.0,5.00,000.00,025.3,023.7,000.0,033.8,027.0,14.9,0000.0,0005.04,0003.10,0002.85
2023-10-14 13:06:00,SystemResetWarning,0837.0,5.00,000.00,025.3,023.7,000.0,033.8,027.0,14.9,0000.0,0005.14,0003.11,0002.86
2023-10-14 13:07:00,SystemResetWarning,0836.9,5.00,000.00,025.4,023.7,000.0,033.8,027.0,14.9,0000.0,0005.21,0003.13,0002.87
2023-10-14 13:08:00,SystemResetWarning,0837.0,5.00,000.00,025.3,023.7,000.0,033.8,027.0,14.9,0000.0,0005.17,0003.12,0002.88
2023-10-14 13:09:00,SystemResetWarning,0837.0,5.00,000.00,025.3,023.7,000.0,033.8,027.0,14.9,0000.0,0005.09,0003.10,0002.88
2023-10-14 13:10:00,SystemResetWarning,0837.0,5.00,000.00,025.3,023.7,000.0,033.8,027.0,14.9,0000.0,0005.08,0003.10,0002.87
2023-10-14 13:11:00,SystemResetWarning,0836.9,4.99,000.00,025.3,023.6,000.0,033.8,027.0,15.0,0000.0,0004.01,0003.11,0002.87
2023-10-14 13:12:00,SystemResetWarning,0836.8,5.00,000.00,025.3,023.6,000.0,033.8,027.0,15.0,0000.0,0004.00,0003.11,0002.87
2023-10-14 13:13:00,SystemResetWarning,0836.8,5.00,000.00,025.3,023.6,000.0,033.8,027.0,15.0,0000.0,0003.96,0003.10,0002.87
2023-10-14 13:14:00,SystemResetWarning,0836.8,5.00,000.00,025.3,023.6,000.0,033.8,027.0,15.1,0000.0,0004.07,0003.12,0002.88
2023-10-14 13:15:00,SystemResetWarning,0836.8,5.00,000.00,025.3,023.6,000.0,033.8,027.0,15.1,0000.0,0004.01,0003.11,0002.89
2023-10-14 13:16:00,SystemResetWarning,0836.8,5.00,000.00,025.3,023.6,000.0,033.8,027.0,15.2,0000.0,0003.97,0003.11,0002.90
2023-10-14 13:17:00,SystemResetWarning,0836.9,5.01,000.00,025.3,023.7,000.0,033.8,027.0,15.2,0000.0,0003.86,0003.11,0002.91
2023-10-14 13:18:00,SystemResetWarning,0836.9,5.00,000.00,025.3,023.6,000.0,033.8,027.0,15.3,0000.0,0003.82,0003.11,0002.91
2023-10-14 13:19:00,SystemResetWarning,0837.0,4.99,000.00,025.3,023.7,000.0,033.8,027.0,15.4,0000.0,0003.93,0003.14,0002.92
2023-10-14 13:20:00,SystemResetWarning,0837.0,5.00,000.00,025.3,023.7,000.0,033.7,027.0,15.5,0000.0,0004.00,0003.15,0002.94
2023-10-14 13:21:00,SystemResetWarning,0837.0,5.00,000.00,025.3,023.7,000.0,033.7,027.0,15.6,0000.0,0003.86,0003.15,0002.96
2023-10-14 13:22:00,SystemResetWarning,0837.0,4.99,000.00,025.3,023.7,000.0,033.7,026.9,15.7,0000.0,0003.77,0003.14,0002.97
2023-10-14 13:23:00,SystemResetWarning,0837.0,5.00,000.00,025.3,023.7,000.0,033.7,027.0,15.8,0000.0,0003.74,0003.14,0002.97
2023-10-14 13:24:00,SystemResetWarning,0837.0,5.00,000.00,025.3,023.7,000.0,033.7,027.0,15.8,0000.0,0003.79,0003.15,0002.98
2023-10-14 13:25:00,SystemResetWarning,0837.0,5.01,000.00,025.3,023.6,000.0,033.7,027.0,15.9,0000.0,0003.97,0003.15,0002.99
2023-10-14 13:26:00,SystemResetWarning,0837.0,5.00,000.00,025.3,023.6,000.0,033.7,027.0,15.9,0000.0,0003.98,0003.14,0002.98
2023-10-14 13:27:00,SystemResetWarning,0836.9,5.00,000.00,025.3,023.6,000.0,033.7,026.9,15.9,0000.0,0003.94,0003.13,0002.95
2023-10-14 13:28:00,SystemResetWarning,0837.0,5.00,000.00,025.2,023.6,000.0,033.7,026.9,15.8,0000.0,0003.96,0003.13,0002.95
2023-10-14 13:29:00,SystemResetWarning,0836.9,4.99,000.00,025.2,023.6,000.0,033.7,026.9,15.8,0000.0,0004.00,0003.14,0002.96
2023-10-14 13:30:00,SystemResetWarning,0836.9,4.98,000.00,025.2,023.6,000.0,033.7,026.9,15.8,0000.0,0004.03,0003.15,0002.97
2023-10-14 13:31:00,SystemResetWarning,0837.0,5.00,000.00,025.2,023.6,000.0,033.7,026.9,15.8,0000.0,0003.99,0003.14,0002.96
2023-10-14 13:32:00,SystemResetWarning,0836.9,5.01,000.00,025.2,023.6,000.0,033.7,027.0,15.7,0000.0,0004.01,0003.14,0002.95
2023-10-14 13:33:00,SystemResetWarning,0836.9,5.00,000.00,025.2,023.6,000.0,033.7,027.0,15.7,0000.0,0004.12,0003.15,0002.94
2023-10-14 13:34:00,SystemResetWarning,0837.0,5.00,000.00,025.2,023.6,000.0,033.7,026.9,15.7,0000.0,0004.21,0003.17,0002.95
2023-10-14 13:35:00,SystemResetWarning,0837.0,5.00,000.00,025.2,023.7,000.0,033.7,026.9,15.6,0000.0,0004.22,0003.18,0002.96
2023-10-14 13:36:00,SystemResetWarning,0837.1,5.00,000.00,025.2,023.7,000.0,033.7,026.9,15.6,0000.0,0004.11,0003.18,0002.94
2023-10-14 13:37:00,SystemResetWarning,0837.1,5.00,000.00,025.2,023.6,000.0,033.7,026.9,15.5,0000.0,0004.49,0003.19,0002.96
2023-10-14 13:38:00,SystemResetWarning,0837.1,5.00,000.00,025.2,023.6,000.0,033.7,026.9,15.5,0000.0,0004.81,0003.22,0002.98
2023-10-14 13:39:00,SystemResetWarning,0837.1,5.00,000.00,025.2,023.6,000.0,033.7,026.9,15.5,0000.0,0004.88,0003.25,0003.00
2023-10-14 13:40:00,SystemResetWarning,0837.1,5.00,000.00,025.2,023.7,000.0,033.7,026.9,15.5,0000.0,0005.12,0003.26,0003.02
2023-10-14 13:41:00,SystemResetWarning,0837.1,5.00,000.00,025.2,023.7,000.0,033.7,027.0,15.5,0000.0,0006.49,0003.25,0003.03
2023-10-14 13:42:00,SystemResetWarning,0837.1,5.00,000.00,025.2,023.7,000.0,033.7,026.9,15.4,0000.0,0006.52,0003.26,0003.06
2023-10-14 13:43:00,SystemResetWarning,0837.1,4.99,000.00,025.2,023.7,000.0,033.7,026.9,15.4,0000.0,0006.53,0003.28,0003.08
2023-10-14 13:44:00,SystemResetWarning,0837.2,5.00,000.00,025.2,023.7,000.0,033.7,026.9,15.4,0000.0,0006.51,0003.27,0003.09
2023-10-14 13:45:00,SystemResetWarning,0837.2,5.00,000.00,025.2,023.7,000.0,033.7,026.9,15.4,0000.0,0007.04,0003.29,0003.10
2023-10-14 13:46:00,SystemResetWarning,0837.2,5.01,000.00,025.2,023.7,000.0,033.6,026.9,15.3,0000.0,0007.08,0003.29,0003.11
2023-10-14 13:47:00,SystemResetWarning,0837.2,5.00,000.00,025.2,023.7,000.0,033.7,026.9,15.3,0000.0,0007.08,0003.30,0003.12
2023-10-14 13:48:00,SystemResetWarning,0837.2,5.00,000.00,025.2,023.7,000.0,033.6,027.0,15.3,0000.0,0007.06,0003.32,0003.13
2023-10-14 13:49:00,SystemResetWarning,0837.2,5.00,000.00,025.2,023.7,000.0,033.6,027.0,15.2,0000.0,0007.32,0003.32,0003.13
2023-10-14 13:50:00,SystemResetWarning,0837.2,5.00,000.00,025.2,023.7,000.0,033.7,027.0,15.3,0000.0,0007.37,0003.34,0003.14
2023-10-14 13:51:00,SystemResetWarning,0837.2,5.00,000.00,025.3,023.8,000.0,033.7,027.0,15.3,0000.0,0007.66,0003.34,0003.14
2023-10-14 13:52:00,SystemResetWarning,0837.2,5.00,000.00,025.2,023.8,000.0,033.7,027.0,15.4,0000.0,0007.19,0003.35,0003.13
2023-10-14 13:53:00,SystemResetWarning,0837.2,5.00,000.00,025.2,023.8,000.0,033.6,027.0,15.5,0000.0,0006.94,0003.36,0003.14
2023-10-14 13:54:00,SystemResetWarning,0837.2,5.00,000.00,025.3,023.8,000.0,033.6,027.0,15.5,0000.0,0007.07,0003.37,0003.14
2023-10-14 13:55:00,SystemResetWarning,0837.3,5.00,000.00,025.3,023.8,000.0,033.6,027.0,15.5,0000.0,0007.24,0003.41,0003.17
2023-10-14 13:56:00,SystemResetWarning,0837.5,5.01,000.00,025.3,023.8,000.0,033.6,027.0,15.6,0000.0,0006.82,0003.42,0003.18
2023-10-14 13:57:00,SystemResetWarning,0837.3,5.01,000.00,025.3,023.8,000.0,033.6,027.0,15.7,0000.0,0006.75,0003.42,0003.18
2023-10-14 13:58:00,SystemResetWarning,0837.4,5.01,000.00,025.3,023.8,000.0,033.6,027.0,15.8,0000.0,0006.71,0003.42,0003.19
2023-10-14 13:59:00,SystemResetWarning,0837.3,4.99,000.00,025.3,023.8,000.0,033.6,027.0,15.6,0000.0,0006.65,0003.41,0003.20
